This demonstration page uses our WeatherBlox Daily Observations layout. Learn more.

Left ArrowRight Arrow

39.01783, -85.05884

Hourly Observations for December 12, 2016

Temp ( °F °C ) Dew Point ( °F °C ) Humidity (%) Winds ( mph kmh ) Pressure ( in mb ) Visibility ( mi km ) Precip ( " mm )
12:03 am 00:03 Cloudy with Drizzle 43 6 39 4 87 87 SW 12 19 29.85 1011 5 8 N/A
12:44 am 00:44 Cloudy with Light Rain 43 6.1 41 5 93 93 SW 13 20 29.88 1012 7 11 0.03 0.76
12:52 am 00:52 Cloudy with Light Rain 43 6.1 41 5 93 93 SW 14 22 29.85 1011 7 11 0.04 1.02
1:46 am 01:46 Cloudy with Light Rain 43 6 41 5 93 93 WSW 14 22 29.88 1012 9 14 N/A
1:52 am 01:52 Cloudy with Light Rain 43 6.1 41 5 93 93 WSW 12 19 29.86 1011 8 13 0.04 1.02
2:52 am 02:52 Cloudy with Drizzle 43 6.1 41 5 93 93 W 13 20 29.88 1012 10 16 0.01 0.25
3:52 am 03:52 Cloudy 43 6.1 40 4.4 89 89 WSW 10 17 29.89 1012 10 16 N/A
4:18 am 04:18 Cloudy 43 6 39 4 87 87 WSW 7 11 29.91 1013 10 16 N/A
4:52 am 04:52 Cloudy 42 5.6 40 4.4 92 92 SW 8 13 29.89 1012 10 16 N/A
5:11 am 05:11 Cloudy 42 5.6 40 4.4 92 92 W 9 15 29.94 1014 10 16 N/A
5:52 am 05:52 Cloudy 42 5.6 40 4.4 92 92 W 13 20 29.91 1013 10 16 N/A
6:23 am 06:23 Cloudy 42 5.6 40 4.4 92 92 W 8 13 29.94 1014 10 16 N/A
6:52 am 06:52 Cloudy 41 5 39 3.9 93 93 W 10 17 29.94 1014 8 13 N/A
7:16 am 07:16 Cloudy 41 5 37 3 87 87 WNW 14 22 29.97 1015 8 13 N/A
7:52 am 07:52 Cloudy 40 4.4 38 3.3 93 93 WNW 8 13 29.96 1015 8 13 N/A
8:29 am 08:29 Cloudy 40 4.4 38 3.3 93 93 W 10 17 30.00 1016 10 16 N/A
8:52 am 08:52 Cloudy 40 4.4 38 3.3 93 93 W 9 15 29.99 1016 10 16 N/A
9:52 am 09:52 Cloudy 40 4.4 35 1.7 83 83 WNW 12 19 30.03 1017 10 16 N/A
10:16 am 10:16 Cloudy 39 4 34 1 81 81 WNW 13 20 30.06 1018 10 16 N/A
10:52 am 10:52 Cloudy 40 4.4 34 1.1 79 79 WNW 14 22 30.06 1018 10 16 N/A
11:52 am 11:52 Cloudy 38 3.3 31 -0.6 76 76 W 13 20 30.07 1018 10 16 N/A
12:52 pm 12:52 Cloudy 38 3.3 29 -1.7 70 70 W 13 20 30.06 1018 10 16 N/A
1:52 pm 13:52 Mostly Cloudy 37 2.8 28 -2.2 70 70 NW 13 20 30.07 1018 10 16 N/A
2:52 pm 14:52 Mostly Cloudy 36 2.2 27 -2.8 70 70 WNW 12 19 30.09 1019 10 16 N/A
3:52 pm 15:52 Cloudy 35 1.7 27 -2.8 72 72 WNW 10 17 30.11 1020 9 14 N/A
4:52 pm 16:52 Cloudy 34 1.1 26 -3.3 73 73 WNW 8 13 30.13 1020 9 14 N/A
5:52 pm 17:52 Cloudy 33 0.6 26 -3.3 75 75 W 6 9 30.14 1021 9 14 N/A
6:52 pm 18:52 Cloudy 33 0.6 26 -3.3 75 75 WNW 5 7 30.14 1021 9 14 N/A
7:52 pm 19:52 Cloudy 33 0.6 26 -3.3 75 75 WNW 6 9 30.16 1021 9 14 N/A
8:52 pm 20:52 Cloudy 32 undefined 26 -3.3 79 79 W 7 11 30.16 1021 9 14 N/A
9:52 pm 21:52 Cloudy 31 -0.6 25 -3.9 79 79 W 7 11 30.16 1021 9 14 N/A
10:38 pm 22:38 Cloudy 30 -1 25 -4 80 80 WNW 5 7 30.21 1023 9 14 N/A
10:52 pm 22:52 Cloudy 29 -1.7 24 -4.4 82 82 W 3 6 30.16 1021 9 14 N/A
11:52 pm 23:52 Cloudy 29 -1.7 24 -4.4 82 82 N N/A 30.14 1021 9 14 N/A

Powered by AerisWeather